Private Wetterstation Sandau
Wetterdaten: Freitag, 27.04.2012
Datum Zeit Temp. A. Feuchte A. Luftdruck Regen Wind Richtung Richtung Taupunkt Windchill
27.04.2012 00:01 13,4 C 61 % 1012,1 hPa 0,0 l/m 2,2 km/h (1 Bft) S-SO 157 6,0 C 13,4 C
27.04.2012 00:06 13,4 C 61 % 1012,1 hPa 0,0 l/m 1,4 km/h (1 Bft) SO 135 6,0 C 13,4 C
27.04.2012 00:11 13,3 C 61 % 1012,2 hPa 0,0 l/m 0,0 km/h (0 Bft) S-SO 157 5,9 C 13,3 C
27.04.2012 00:16 13,2 C 62 % 1012,3 hPa 0,0 l/m 0,0 km/h (0 Bft) S-SO 157 6,1 C 13,2 C
27.04.2012 00:21 13,1 C 62 % 1012,4 hPa 0,0 l/m 2,9 km/h (1 Bft) S-SO 157 6,0 C 13,1 C
27.04.2012 00:26 13,1 C 62 % 1012,4 hPa 0,0 l/m 0,0 km/h (0 Bft) S-SW 202 6,0 C 13,1 C
27.04.2012 00:31 13,1 C 62 % 1012,1 hPa 0,0 l/m 0,0 km/h (0 Bft) S 180 6,0 C 13,1 C
27.04.2012 00:36 13,1 C 63 % 1012,2 hPa 0,0 l/m 6,1 km/h (2 Bft) S 180 6,2 C 13,1 C
27.04.2012 00:41 13,1 C 63 % 1012,4 hPa 0,0 l/m 2,9 km/h (1 Bft) SO 135 6,2 C 13,1 C
27.04.2012 00:46 13,1 C 63 % 1012,5 hPa 0,0 l/m 4,3 km/h (1 Bft) S-SO 157 6,2 C 13,1 C
27.04.2012 00:51 13,0 C 64 % 1012,5 hPa 0,0 l/m 2,9 km/h (1 Bft) S-SO 157 6,4 C 13,0 C
27.04.2012 00:56 13,0 C 64 % 1012,5 hPa 0,0 l/m 2,5 km/h (1 Bft) S-SO 157 6,4 C 13,0 C
27.04.2012 01:01 12,9 C 64 % 1012,7 hPa 0,0 l/m 0,0 km/h (0 Bft) S 180 6,3 C 12,9 C
27.04.2012 01:06 12,9 C 65 % 1012,8 hPa 0,0 l/m 3,2 km/h (1 Bft) S 180 6,5 C 12,9 C
27.04.2012 01:11 12,9 C 65 % 1012,7 hPa 0,0 l/m 6,5 km/h (2 Bft) S-SW 202 6,5 C 12,9 C
27.04.2012 01:16 12,9 C 65 % 1012,8 hPa 0,0 l/m 3,6 km/h (1 Bft) S-SO 157 6,5 C 12,9 C
27.04.2012 01:21 12,9 C 65 % 1012,9 hPa 0,0 l/m 5,0 km/h (1 Bft) O-SO 112 6,5 C 12,9 C
27.04.2012 01:26 12,9 C 65 % 1012,9 hPa 0,0 l/m 0,0 km/h (0 Bft) SO 135 6,5 C 12,9 C
27.04.2012 01:31 12,9 C 65 % 1013,1 hPa 0,0 l/m 4,3 km/h (1 Bft) S-SW 202 6,5 C 12,9 C
27.04.2012 01:36 12,9 C 65 % 1013,1 hPa 0,0 l/m 4,0 km/h (1 Bft) S 180 6,5 C 12,9 C
27.04.2012 01:41 12,9 C 65 % 1013,1 hPa 0,0 l/m 4,3 km/h (1 Bft) S 180 6,5 C 12,9 C
27.04.2012 01:46 12,9 C 65 % 1013,4 hPa 0,0 l/m 4,7 km/h (1 Bft) S 180 6,5 C 12,9 C
27.04.2012 01:51 12,8 C 65 % 1013,1 hPa 0,0 l/m 1,4 km/h (1 Bft) S 180 6,4 C 12,8 C
27.04.2012 01:56 12,8 C 65 % 1012,9 hPa 0,0 l/m 0,0 km/h (0 Bft) S 180 6,4 C 12,8 C
27.04.2012 02:01 12,8 C 65 % 1012,8 hPa 0,0 l/m 0,0 km/h (0 Bft) S 180 6,4 C 12,8 C
27.04.2012 02:06 12,8 C 65 % 1012,7 hPa 0,0 l/m 0,0 km/h (0 Bft) S-SW 202 6,4 C 12,8 C
27.04.2012 02:11 12,8 C 65 % 1013,0 hPa 0,0 l/m 3,6 km/h (1 Bft) S 180 6,4 C 12,8 C
27.04.2012 02:16 12,8 C 65 % 1013,0 hPa 0,0 l/m 2,9 km/h (1 Bft) S-SO 157 6,4 C 12,8 C
27.04.2012 02:21 12,8 C 65 % 1013,1 hPa 0,0 l/m 0,0 km/h (0 Bft) S-SO 157 6,4 C 12,8 C
27.04.2012 02:26 12,8 C 65 % 1013,3 hPa 0,0 l/m 3,6 km/h (1 Bft) S-SO 157 6,4 C 12,8 C
27.04.2012 02:31 12,7 C 66 % 1013,2 hPa 0,0 l/m 2,2 km/h (1 Bft) S-SO 157 6,5 C 12,7 C
27.04.2012 02:36 12,7 C 66 % 1012,9 hPa 0,0 l/m 3,6 km/h (1 Bft) S-SO 157 6,5 C 12,7 C
27.04.2012 02:41 12,6 C 66 % 1013,1 hPa 0,0 l/m 2,5 km/h (1 Bft) S-SO 157 6,4 C 12,6 C
27.04.2012 02:46 12,6 C 66 % 1013,1 hPa 0,0 l/m 2,5 km/h (1 Bft) S 180 6,4 C 12,6 C
27.04.2012 02:51 12,6 C 66 % 1013,1 hPa 0,0 l/m 4,3 km/h (1 Bft) S 180 6,4 C 12,6 C
27.04.2012 02:56 12,5 C 66 % 1013,4 hPa 0,0 l/m 0,0 km/h (0 Bft) S 180 6,3 C 12,5 C
27.04.2012 03:01 12,5 C 66 % 1013,4 hPa 0,0 l/m 3,2 km/h (1 Bft) SO 135 6,3 C 12,5 C
27.04.2012 03:06 12,5 C 66 % 1013,4 hPa 0,0 l/m 2,5 km/h (1 Bft) S 180 6,3 C 12,5 C
27.04.2012 03:11 12,5 C 66 % 1013,4 hPa 0,0 l/m 2,5 km/h (1 Bft) S-SW 202 6,3 C 12,5 C
27.04.2012 03:16 12,5 C 66 % 1013,6 hPa 0,0 l/m 4,3 km/h (1 Bft) S 180 6,3 C 12,5 C
27.04.2012 03:21 12,5 C 66 % 1013,5 hPa 0,0 l/m 2,5 km/h (1 Bft) S-SO 157 6,3 C 12,5 C
27.04.2012 03:26 12,4 C 67 % 1013,4 hPa 0,0 l/m 0,0 km/h (0 Bft) S-SO 157 6,4 C 12,4 C
27.04.2012 03:31 12,4 C 67 % 1013,5 hPa 0,0 l/m 5,8 km/h (2 Bft) SO 135 6,4 C 12,4 C
27.04.2012 03:36 12,3 C 67 % 1013,5 hPa 0,0 l/m 6,8 km/h (2 Bft) S 180 6,4 C 12,3 C
27.04.2012 03:41 12,3 C 67 % 1013,7 hPa 0,0 l/m 8,6 km/h (2 Bft) S 180 6,4 C 12,3 C
27.04.2012 03:46 12,3 C 67 % 1013,5 hPa 0,0 l/m 2,9 km/h (1 Bft) SO 135 6,4 C 12,3 C
27.04.2012 03:51 12,3 C 67 % 1013,5 hPa 0,0 l/m 8,6 km/h (2 Bft) S-SO 157 6,4 C 12,3 C
27.04.2012 03:56 12,3 C 67 % 1013,8 hPa 0,0 l/m 2,9 km/h (1 Bft) S 180 6,4 C 12,3 C
27.04.2012 04:01 12,3 C 67 % 1013,9 hPa 0,0 l/m 3,6 km/h (1 Bft) S-SO 157 6,4 C 12,3 C
27.04.2012 04:06 12,3 C 67 % 1014,0 hPa 0,0 l/m 4,3 km/h (1 Bft) S 180 6,4 C 12,3 C
27.04.2012 04:11 12,3 C 67 % 1013,8 hPa 0,0 l/m 1,1 km/h (1 Bft) S-SO 157 6,4 C 12,3 C
27.04.2012 04:16 12,4 C 67 % 1013,8 hPa 0,0 l/m 5,0 km/h (1 Bft) S-SW 202 6,4 C 12,4 C
27.04.2012 04:21 12,4 C 67 % 1013,8 hPa 0,0 l/m 4,3 km/h (1 Bft) S 180 6,4 C 12,4 C
27.04.2012 04:26 12,4 C 67 % 1013,9 hPa 0,0 l/m 1,1 km/h (1 Bft) S 180 6,4 C 12,4 C
27.04.2012 04:31 12,4 C 67 % 1014,0 hPa 0,0 l/m 4,0 km/h (1 Bft) S 180 6,4 C 12,4 C
27.04.2012 04:36 12,4 C 66 % 1014,1 hPa 0,0 l/m 6,1 km/h (2 Bft) S 180 6,2 C 12,4 C
27.04.2012 04:41 12,4 C 66 % 1014,2 hPa 0,0 l/m 4,3 km/h (1 Bft) S 180 6,2 C 12,4 C
27.04.2012 04:46 12,4 C 65 % 1014,2 hPa 0,0 l/m 2,5 km/h (1 Bft) S 180 6,0 C 12,4 C
27.04.2012 04:51 12,5 C 65 % 1014,4 hPa 0,0 l/m 5,0 km/h (1 Bft) S-SW 202 6,1 C 12,5 C
27.04.2012 04:56 12,5 C 65 % 1014,4 hPa 0,0 l/m 5,0 km/h (1 Bft) S-SW 202 6,1 C 12,5 C
27.04.2012 05:01 12,5 C 65 % 1014,5 hPa 0,0 l/m 5,4 km/h (1 Bft) S-SW 202 6,1 C 12,5 C
27.04.2012 05:06 12,5 C 65 % 1014,2 hPa 0,0 l/m 3,6 km/h (1 Bft) S-SO 157 6,1 C 12,5 C
27.04.2012 05:11 12,5 C 65 % 1014,4 hPa 0,0 l/m 4,7 km/h (1 Bft) S-SO 157 6,1 C 12,5 C
27.04.2012 05:16 12,5 C 65 % 1014,5 hPa 0,0 l/m 3,6 km/h (1 Bft) S-SO 157 6,1 C 12,5 C
27.04.2012 05:21 12,5 C 65 % 1014,2 hPa 0,0 l/m 2,9 km/h (1 Bft) S-SO 157 6,1 C 12,5 C
27.04.2012 05:26 12,5 C 65 % 1014,4 hPa 0,0 l/m 8,6 km/h (2 Bft) SW 225 6,1 C 12,5 C
27.04.2012 05:31 12,4 C 64 % 1014,4 hPa 0,0 l/m 5,8 km/h (2 Bft) S 180 5,8 C 12,4 C
27.04.2012 05:36 12,4 C 64 % 1014,2 hPa 0,0 l/m 4,0 km/h (1 Bft) SO 135 5,8 C 12,4 C
27.04.2012 05:41 12,4 C 64 % 1014,4 hPa 0,0 l/m 3,6 km/h (1 Bft) SO 135 5,8 C 12,4 C
27.04.2012 05:46 12,3 C 65 % 1014,5 hPa 0,0 l/m 1,4 km/h (1 Bft) SO 135 5,9 C 12,3 C
27.04.2012 05:51 12,3 C 65 % 1014,4 hPa 0,0 l/m 3,2 km/h (1 Bft) SW 225 5,9 C 12,3 C
27.04.2012 05:56 12,2 C 65 % 1014,5 hPa 0,0 l/m 1,1 km/h (1 Bft) S 180 5,8 C 12,2 C
27.04.2012 06:01 12,1 C 65 % 1014,8 hPa 0,0 l/m 3,6 km/h (1 Bft) S-SO 157 5,7 C 12,1 C
27.04.2012 06:06 12,1 C 65 % 1014,6 hPa 0,0 l/m 3,2 km/h (1 Bft) S 180 5,7 C 12,1 C
27.04.2012 06:11 12,1 C 65 % 1014,6 hPa 0,0 l/m 5,0 km/h (1 Bft) S 180 5,7 C 12,1 C
27.04.2012 06:16 12,1 C 65 % 1014,6 hPa 0,0 l/m 2,9 km/h (1 Bft) S-SW 202 5,7 C 12,1 C
27.04.2012 06:21 12,0 C 66 % 1014,9 hPa 0,0 l/m 4,7 km/h (1 Bft) SW 225 5,8 C 12,0 C
27.04.2012 06:26 12,0 C 66 % 1014,9 hPa 0,0 l/m 3,2 km/h (1 Bft) SW 225 5,8 C 12,0 C
27.04.2012 06:31 12,1 C 66 % 1015,0 hPa 0,0 l/m 2,2 km/h (1 Bft) S-SW 202 5,9 C 12,1 C
27.04.2012 06:36 12,1 C 66 % 1015,0 hPa 0,0 l/m 2,9 km/h (1 Bft) S-SW 202 5,9 C 12,1 C
27.04.2012 06:41 12,1 C 66 % 1015,0 hPa 0,0 l/m 2,2 km/h (1 Bft) S 180 5,9 C 12,1 C
27.04.2012 06:46 12,2 C 66 % 1014,7 hPa 0,0 l/m 1,4 km/h (1 Bft) S 180 6,0 C 12,2 C
27.04.2012 06:51 12,2 C 66 % 1015,0 hPa 0,0 l/m 3,2 km/h (1 Bft) S-SO 157 6,0 C 12,2 C
27.04.2012 06:56 12,3 C 66 % 1015,3 hPa 0,0 l/m 4,0 km/h (1 Bft) S 180 6,1 C 12,3 C
27.04.2012 07:01 12,3 C 66 % 1015,2 hPa 0,0 l/m 4,3 km/h (1 Bft) SO 135 6,1 C 12,3 C
27.04.2012 07:06 12,4 C 66 % 1015,3 hPa 0,0 l/m 2,5 km/h (1 Bft) S 180 6,2 C 12,4 C
27.04.2012 07:11 12,4 C 65 % 1015,4 hPa 0,0 l/m 5,8 km/h (2 Bft) SO 135 6,0 C 12,4 C
27.04.2012 07:16 12,5 C 65 % 1015,3 hPa 0,0 l/m 2,5 km/h (1 Bft) S-SO 157 6,1 C 12,5 C
27.04.2012 07:21 12,6 C 66 % 1015,5 hPa 0,0 l/m 4,7 km/h (1 Bft) S-SW 202 6,4 C 12,6 C
27.04.2012 07:26 12,8 C 65 % 1015,7 hPa 0,0 l/m 3,2 km/h (1 Bft) S-SW 202 6,4 C 12,8 C
27.04.2012 07:31 12,8 C 65 % 1015,6 hPa 0,0 l/m 3,6 km/h (1 Bft) S-SO 157 6,4 C 12,8 C
27.04.2012 07:36 12,9 C 66 % 1015,7 hPa 0,0 l/m 1,8 km/h (1 Bft) S 180 6,7 C 12,9 C
27.04.2012 07:41 13,0 C 66 % 1015,7 hPa 0,0 l/m 4,7 km/h (1 Bft) S 180 6,8 C 13,0 C
27.04.2012 07:46 13,1 C 66 % 1015,9 hPa 0,0 l/m 4,3 km/h (1 Bft) S 180 6,9 C 13,1 C
27.04.2012 07:51 13,1 C 66 % 1016,0 hPa 0,0 l/m 3,2 km/h (1 Bft) S 180 6,9 C 13,1 C
27.04.2012 07:56 13,2 C 66 % 1016,0 hPa 0,0 l/m 3,6 km/h (1 Bft) S-SW 202 7,0 C 13,2 C
27.04.2012 08:01 13,4 C 66 % 1015,9 hPa 0,0 l/m 2,5 km/h (1 Bft) W-SW 247 7,2 C 13,4 C
27.04.2012 08:06 13,4 C 65 % 1016,3 hPa 0,0 l/m 9,0 km/h (2 Bft) S-SW 202 7,0 C 13,4 C
27.04.2012 08:11 13,5 C 65 % 1016,3 hPa 0,0 l/m 7,6 km/h (2 Bft) S-SW 202 7,1 C 13,5 C
27.04.2012 08:16 13,5 C 64 % 1016,2 hPa 0,0 l/m 4,0 km/h (1 Bft) S-SW 202 6,8 C 13,5 C
27.04.2012 08:21 13,5 C 64 % 1015,8 hPa 0,0 l/m 6,1 km/h (2 Bft) S 180 6,8 C 13,5 C
27.04.2012 08:26 13,6 C 64 % 1015,7 hPa 0,0 l/m 8,3 km/h (2 Bft) S 180 6,9 C 13,6 C
27.04.2012 08:31 13,6 C 63 % 1016,0 hPa 0,0 l/m 8,6 km/h (2 Bft) SW 225 6,7 C 13,6 C
27.04.2012 08:36 13,6 C 63 % 1016,2 hPa 0,0 l/m 8,3 km/h (2 Bft) S-SW 202 6,7 C 13,6 C
27.04.2012 08:41 13,8 C 63 % 1016,3 hPa 0,0 l/m 7,2 km/h (2 Bft) S-SW 202 6,9 C 13,8 C
27.04.2012 08:46 13,8 C 63 % 1016,3 hPa 0,0 l/m 6,1 km/h (2 Bft) W-NW 292 6,9 C 13,8 C
27.04.2012 08:51 13,9 C 63 % 1016,4 hPa 0,0 l/m 5,8 km/h (2 Bft) SW 225 7,0 C 13,9 C
27.04.2012 08:56 14,3 C 63 % 1016,5 hPa 0,0 l/m 8,3 km/h (2 Bft) SW 225 7,4 C 14,3 C
27.04.2012 09:01 14,6 C 62 % 1016,6 hPa 0,0 l/m 6,8 km/h (2 Bft) SW 225 7,4 C 14,6 C
27.04.2012 09:06 14,8 C 61 % 1016,7 hPa 0,0 l/m 6,5 km/h (2 Bft) SW 225 7,4 C 14,8 C
27.04.2012 09:11 14,7 C 61 % 1016,8 hPa 0,0 l/m 6,5 km/h (2 Bft) S-SW 202 7,3 C 14,7 C
27.04.2012 09:16 14,6 C 60 % 1016,5 hPa 0,0 l/m 10,1 km/h (2 Bft) W-SW 247 6,9 C 14,6 C
27.04.2012 09:21 14,6 C 60 % 1016,3 hPa 0,0 l/m 7,2 km/h (2 Bft) SW 225 6,9 C 14,6 C
27.04.2012 09:26 14,8 C 61 % 1016,4 hPa 0,0 l/m 7,6 km/h (2 Bft) W-SW 247 7,4 C 14,8 C
27.04.2012 09:31 14,9 C 60 % 1016,6 hPa 0,0 l/m 6,1 km/h (2 Bft) S-SW 202 7,2 C 14,9 C
27.04.2012 09:36 14,9 C 60 % 1016,6 hPa 0,0 l/m 5,0 km/h (1 Bft) S 180 7,2 C 14,9 C
27.04.2012 09:41 15,1 C 61 % 1016,7 hPa 0,0 l/m 7,2 km/h (2 Bft) S 180 7,6 C 15,1 C
27.04.2012 09:46 15,5 C 60 % 1016,7 hPa 0,0 l/m 10,8 km/h (2 Bft) S 180 7,8 C 15,5 C
27.04.2012 09:51 15,8 C 59 % 1016,7 hPa 0,0 l/m 13,3 km/h (3 Bft) W 270 7,8 C 15,8 C
27.04.2012 09:56 15,9 C 58 % 1016,7 hPa 0,0 l/m 10,4 km/h (2 Bft) S 180 7,6 C 15,9 C
27.04.2012 10:01 16,2 C 57 % 1016,7 hPa 0,0 l/m 6,8 km/h (2 Bft) W 270 7,7 C 16,2 C
27.04.2012 10:06 16,4 C 57 % 1016,7 hPa 0,0 l/m 6,8 km/h (2 Bft) SW 225 7,9 C 16,4 C
27.04.2012 10:11 16,6 C 56 % 1016,5 hPa 0,0 l/m 2,2 km/h (1 Bft) S 180 7,8 C 16,6 C
27.04.2012 10:16 16,9 C 56 % 1016,6 hPa 0,0 l/m 3,6 km/h (1 Bft) S-SW 202 8,1 C 16,9 C
27.04.2012 10:21 17,1 C 55 % 1016,7 hPa 0,0 l/m 12,2 km/h (2 Bft) S 180 8,0 C 17,1 C
27.04.2012 10:26 17,1 C 53 % 1016,8 hPa 0,0 l/m 7,9 km/h (2 Bft) W-SW 247 7,4 C 17,1 C
27.04.2012 10:31 17,2 C 54 % 1016,8 hPa 0,0 l/m 6,5 km/h (2 Bft) W-NW 292 7,8 C 17,2 C
27.04.2012 10:36 17,3 C 54 % 1016,9 hPa 0,0 l/m 4,0 km/h (1 Bft) S-SO 157 7,9 C 17,3 C
27.04.2012 10:41 17,3 C 54 % 1016,9 hPa 0,0 l/m 4,3 km/h (1 Bft) S-SW 202 7,9 C 17,3 C
27.04.2012 10:46 17,5 C 54 % 1017,0 hPa 0,0 l/m 6,8 km/h (2 Bft) SW 225 8,1 C 17,5 C
27.04.2012 10:51 17,4 C 53 % 1017,0 hPa 0,0 l/m 12,2 km/h (2 Bft) W-SW 247 7,7 C 17,4 C
27.04.2012 10:56 17,3 C 52 % 1017,0 hPa 0,0 l/m 7,9 km/h (2 Bft) W-SW 247 7,3 C 17,3 C
27.04.2012 11:01 17,3 C 52 % 1017,0 hPa 0,0 l/m 5,8 km/h (2 Bft) SW 225 7,3 C 17,3 C
27.04.2012 11:06 17,3 C 52 % 1017,0 hPa 0,0 l/m 6,1 km/h (2 Bft) W-SW 247 7,3 C 17,3 C
27.04.2012 11:11 17,4 C 52 % 1017,1 hPa 0,0 l/m 0,0 km/h (0 Bft) SO 135 7,4 C 17,4 C
27.04.2012 11:16 17,5 C 52 % 1016,9 hPa 0,0 l/m 4,3 km/h (1 Bft) W 270 7,5 C 17,5 C
27.04.2012 11:21 17,6 C 51 % 1016,9 hPa 0,0 l/m 2,5 km/h (1 Bft) W-NW 292 7,3 C 17,6 C
27.04.2012 11:26 17,8 C 51 % 1017,0 hPa 0,0 l/m 9,7 km/h (2 Bft) W-SW 247 7,5 C 17,8 C
27.04.2012 11:31 17,9 C 50 % 1017,1 hPa 0,0 l/m 7,9 km/h (2 Bft) SW 225 7,3 C 17,9 C
27.04.2012 11:36 17,9 C 50 % 1017,2 hPa 0,0 l/m 9,4 km/h (2 Bft) SW 225 7,3 C 17,9 C
27.04.2012 11:41 17,8 C 49 % 1017,3 hPa 0,0 l/m 6,8 km/h (2 Bft) W 270 6,9 C 17,8 C
27.04.2012 11:46 17,8 C 49 % 1017,2 hPa 0,0 l/m 16,2 km/h (3 Bft) W-SW 247 6,9 C 17,8 C
27.04.2012 11:51 17,9 C 48 % 1017,3 hPa 0,0 l/m 7,6 km/h (2 Bft) SW 225 6,7 C 17,9 C
27.04.2012 11:56 18,0 C 47 % 1017,3 hPa 0,0 l/m 16,2 km/h (3 Bft) SW 225 6,5 C 18,0 C
27.04.2012 12:01 17,9 C 48 % 1017,4 hPa 0,0 l/m 23,4 km/h (4 Bft) W 270 6,7 C 17,9 C
27.04.2012 12:06 17,8 C 48 % 1017,5 hPa 0,0 l/m 21,2 km/h (4 Bft) W 270 6,6 C 17,8 C
27.04.2012 12:11 17,9 C 48 % 1017,4 hPa 0,0 l/m 16,9 km/h (3 Bft) W-SW 247 6,7 C 17,9 C
27.04.2012 12:16 17,8 C 48 % 1017,3 hPa 0,0 l/m 11,2 km/h (2 Bft) W-SW 247 6,6 C 17,8 C
27.04.2012 12:21 17,6 C 48 % 1017,3 hPa 0,0 l/m 16,6 km/h (3 Bft) W-SW 247 6,5 C 17,6 C
27.04.2012 12:26 17,8 C 49 % 1017,2 hPa 0,0 l/m 9,4 km/h (2 Bft) W-SW 247 6,9 C 17,8 C
27.04.2012 12:31 18,2 C 49 % 1017,3 hPa 0,0 l/m 18,7 km/h (3 Bft) W-SW 247 7,3 C 18,2 C
27.04.2012 12:36 18,4 C 48 % 1017,3 hPa 0,0 l/m 7,6 km/h (2 Bft) W 270 7,2 C 18,4 C
27.04.2012 12:41 18,8 C 48 % 1017,3 hPa 0,0 l/m 13,3 km/h (3 Bft) W-NW 292 7,6 C 18,8 C
27.04.2012 12:46 18,9 C 47 % 1017,4 hPa 0,0 l/m 6,1 km/h (2 Bft) S-SW 202 7,3 C 18,9 C
27.04.2012 12:51 19,2 C 47 % 1017,4 hPa 0,0 l/m 11,9 km/h (2 Bft) W-SW 247 7,6 C 19,2 C
27.04.2012 12:56 19,3 C 46 % 1017,4 hPa 0,0 l/m 6,5 km/h (2 Bft) W-SW 247 7,4 C 19,3 C
27.04.2012 13:01 19,6 C 46 % 1017,4 hPa 0,0 l/m 10,1 km/h (2 Bft) W 270 7,7 C 19,6 C
27.04.2012 13:06 19,8 C 45 % 1017,4 hPa 0,0 l/m 10,8 km/h (2 Bft) W-SW 247 7,5 C 19,8 C
27.04.2012 13:11 19,9 C 45 % 1017,5 hPa 0,0 l/m 20,5 km/h (4 Bft) W 270 7,6 C 19,9 C
27.04.2012 13:16 20,1 C 44 % 1017,4 hPa 0,0 l/m 15,8 km/h (3 Bft) W-SW 247 7,5 C 20,1 C
27.04.2012 13:21 20,3 C 44 % 1017,2 hPa 0,0 l/m 6,8 km/h (2 Bft) W-SW 247 7,6 C 20,3 C
27.04.2012 13:26 20,5 C 45 % 1017,2 hPa 0,0 l/m 9,7 km/h (2 Bft) SW 225 8,2 C 20,5 C
27.04.2012 13:31 20,6 C 44 % 1017,0 hPa 0,0 l/m 4,3 km/h (1 Bft) S 180 7,9 C 20,6 C
27.04.2012 13:36 20,6 C 44 % 1017,2 hPa 0,0 l/m 7,9 km/h (2 Bft) W-SW 247 7,9 C 20,6 C
27.04.2012 13:41 20,9 C 44 % 1017,3 hPa 0,0 l/m 4,7 km/h (1 Bft) W-SW 247 8,2 C 20,9 C
27.04.2012 13:46 20,7 C 43 % 1017,2 hPa 0,0 l/m 6,1 km/h (2 Bft) W 270 7,7 C 20,7 C
27.04.2012 13:51 20,4 C 44 % 1017,4 hPa 0,0 l/m 11,9 km/h (2 Bft) SW 225 7,7 C 20,4 C
27.04.2012 13:56 20,1 C 45 % 1017,3 hPa 0,0 l/m 9,0 km/h (2 Bft) W-SW 247 7,8 C 20,1 C
27.04.2012 14:01 19,8 C 45 % 1017,3 hPa 0,0 l/m 6,8 km/h (2 Bft) S 180 7,5 C 19,8 C
27.04.2012 14:06 19,6 C 45 % 1017,3 hPa 0,0 l/m 2,9 km/h (1 Bft) W-NW 292 7,3 C 19,6 C
27.04.2012 14:11 19,6 C 45 % 1017,1 hPa 0,0 l/m 5,4 km/h (1 Bft) W-NW 292 7,3 C 19,6 C
27.04.2012 14:16 19,5 C 46 % 1017,5 hPa 0,0 l/m 5,4 km/h (1 Bft) W-NW 292 7,6 C 19,5 C
27.04.2012 14:21 19,6 C 47 % 1017,3 hPa 0,0 l/m 7,6 km/h (2 Bft) SW 225 8,0 C 19,6 C
27.04.2012 14:26 20,1 C 47 % 1017,3 hPa 0,0 l/m 14,4 km/h (3 Bft) SW 225 8,4 C 20,1 C
27.04.2012 14:31 20,4 C 45 % 1017,3 hPa 0,0 l/m 15,1 km/h (3 Bft) SW 225 8,1 C 20,4 C
27.04.2012 14:36 20,6 C 45 % 1017,4 hPa 0,0 l/m 9,0 km/h (2 Bft) W-SW 247 8,2 C 20,6 C
27.04.2012 14:41 20,9 C 45 % 1017,2 hPa 0,0 l/m 11,2 km/h (2 Bft) S-SW 202 8,5 C 20,9 C
27.04.2012 14:46 21,1 C 44 % 1017,4 hPa 0,0 l/m 5,8 km/h (2 Bft) W-NW 292 8,4 C 21,1 C
27.04.2012 14:51 21,1 C 44 % 1017,5 hPa 0,0 l/m 8,6 km/h (2 Bft) W 270 8,4 C 21,1 C
27.04.2012 14:56 20,9 C 44 % 1017,5 hPa 0,0 l/m 12,6 km/h (3 Bft) W-NW 292 8,2 C 20,9 C
27.04.2012 15:01 20,6 C 45 % 1017,5 hPa 0,0 l/m 6,8 km/h (2 Bft) W-NW 292 8,2 C 20,6 C
27.04.2012 15:06 20,4 C 45 % 1017,6 hPa 0,0 l/m 4,7 km/h (1 Bft) W 270 8,1 C 20,4 C
27.04.2012 15:11 20,2 C 46 % 1017,6 hPa 0,0 l/m 2,9 km/h (1 Bft) W 270 8,2 C 20,2 C
27.04.2012 15:16 20,1 C 46 % 1017,6 hPa 0,0 l/m 14,0 km/h (3 Bft) NW 315 8,1 C 20,1 C
27.04.2012 15:21 20,1 C 46 % 1017,6 hPa 0,0 l/m 11,2 km/h (2 Bft) W 270 8,1 C 20,1 C
27.04.2012 15:26 20,3 C 45 % 1017,7 hPa 0,0 l/m 2,5 km/h (1 Bft) NW 315 8,0 C 20,3 C
27.04.2012 15:31 20,4 C 45 % 1017,7 hPa 0,0 l/m 7,6 km/h (2 Bft) NW 315 8,1 C 20,4 C
27.04.2012 15:36 20,4 C 45 % 1017,6 hPa 0,0 l/m 1,4 km/h (1 Bft) N 360 8,1 C 20,4 C
27.04.2012 15:41 20,5 C 45 % 1017,4 hPa 0,0 l/m 0,0 km/h (0 Bft) NW 315 8,2 C 20,5 C
27.04.2012 15:46 20,5 C 45 % 1017,4 hPa 0,0 l/m 4,7 km/h (1 Bft) NO 45 8,2 C 20,5 C
27.04.2012 15:51 20,4 C 45 % 1017,5 hPa 0,0 l/m 3,2 km/h (1 Bft) W 270 8,1 C 20,4 C
27.04.2012 15:56 20,6 C 45 % 1017,4 hPa 0,0 l/m 5,0 km/h (1 Bft) NW 315 8,2 C 20,6 C
27.04.2012 16:01 21,0 C 45 % 1017,4 hPa 0,0 l/m 2,5 km/h (1 Bft) NW 315 8,6 C 21,0 C
27.04.2012 16:06 21,1 C 45 % 1017,2 hPa 0,0 l/m 7,2 km/h (2 Bft) W 270 8,7 C 21,1 C
27.04.2012 16:11 21,4 C 44 % 1017,2 hPa 0,0 l/m 0,0 km/h (0 Bft) N-NW 337 8,6 C 21,4 C
27.04.2012 16:16 21,5 C 44 % 1017,4 hPa 0,0 l/m 3,6 km/h (1 Bft) W 270 8,7 C 21,5 C
27.04.2012 16:21 21,6 C 44 % 1017,4 hPa 0,0 l/m 4,0 km/h (1 Bft) O 90 8,8 C 21,6 C
27.04.2012 16:26 21,2 C 44 % 1017,4 hPa 0,0 l/m 3,6 km/h (1 Bft) W 270 8,5 C 21,2 C
27.04.2012 16:31 21,1 C 44 % 1017,5 hPa 0,0 l/m 4,7 km/h (1 Bft) NW 315 8,4 C 21,1 C
27.04.2012 16:36 20,9 C 44 % 1017,4 hPa 0,0 l/m 4,0 km/h (1 Bft) N-NW 337 8,2 C 20,9 C
27.04.2012 16:41 20,6 C 44 % 1017,3 hPa 0,0 l/m 3,2 km/h (1 Bft) W 270 7,9 C 20,6 C
27.04.2012 16:46 20,4 C 45 % 1017,4 hPa 0,0 l/m 0,0 km/h (0 Bft) N 360 8,1 C 20,4 C
27.04.2012 16:51 20,4 C 45 % 1017,4 hPa 0,0 l/m 3,2 km/h (1 Bft) NO 45 8,1 C 20,4 C
27.04.2012 16:56 20,3 C 45 % 1017,4 hPa 0,0 l/m 2,5 km/h (1 Bft) NO 45 8,0 C 20,3 C
27.04.2012 17:01 20,1 C 45 % 1017,3 hPa 0,0 l/m 1,4 km/h (1 Bft) NO 45 7,8 C 20,1 C
27.04.2012 17:06 20,1 C 45 % 1017,4 hPa 0,0 l/m 2,9 km/h (1 Bft) N-NW 337 7,8 C 20,1 C
27.04.2012 17:11 20,1 C 45 % 1017,4 hPa 0,0 l/m 2,2 km/h (1 Bft) N 360 7,8 C 20,1 C
27.04.2012 17:16 20,1 C 45 % 1017,4 hPa 0,0 l/m 3,6 km/h (1 Bft) N-NO 22 7,8 C 20,1 C
27.04.2012 17:21 19,9 C 46 % 1017,3 hPa 0,0 l/m 4,7 km/h (1 Bft) W-NW 292 7,9 C 19,9 C
27.04.2012 17:26 20,1 C 46 % 1017,3 hPa 0,0 l/m 0,0 km/h (0 Bft) W 270 8,1 C 20,1 C
27.04.2012 17:31 20,3 C 46 % 1017,3 hPa 0,0 l/m 3,6 km/h (1 Bft) NW 315 8,3 C 20,3 C
27.04.2012 17:36 20,5 C 45 % 1017,3 hPa 0,0 l/m 1,8 km/h (1 Bft) N 360 8,2 C 20,5 C
27.04.2012 17:41 20,7 C 45 % 1017,4 hPa 0,0 l/m 2,5 km/h (1 Bft) NW 315 8,3 C 20,7 C
27.04.2012 17:46 20,8 C 45 % 1017,3 hPa 0,0 l/m 2,2 km/h (1 Bft) N 360 8,4 C 20,8 C
27.04.2012 17:51 20,8 C 45 % 1017,3 hPa 0,0 l/m 2,9 km/h (1 Bft) W 270 8,4 C 20,8 C
27.04.2012 17:56 20,6 C 46 % 1017,3 hPa 0,0 l/m 5,8 km/h (2 Bft) N-NW 337 8,6 C 20,6 C
27.04.2012 18:01 20,6 C 46 % 1017,2 hPa 0,0 l/m 1,4 km/h (1 Bft) NW 315 8,6 C 20,6 C
27.04.2012 18:06 20,6 C 46 % 1017,3 hPa 0,0 l/m 2,2 km/h (1 Bft) W-NW 292 8,6 C 20,6 C
27.04.2012 18:11 20,7 C 47 % 1017,2 hPa 0,0 l/m 2,5 km/h (1 Bft) NW 315 9,0 C 20,7 C
27.04.2012 18:16 20,5 C 47 % 1017,2 hPa 0,0 l/m 0,0 km/h (0 Bft) N-NO 22 8,8 C 20,5 C
27.04.2012 18:21 20,2 C 47 % 1017,2 hPa 0,0 l/m 1,4 km/h (1 Bft) W 270 8,5 C 20,2 C
27.04.2012 18:26 19,9 C 47 % 1017,3 hPa 0,0 l/m 1,4 km/h (1 Bft) NO 45 8,3 C 19,9 C
27.04.2012 18:31 19,8 C 48 % 1017,2 hPa 0,0 l/m 2,2 km/h (1 Bft) N 360 8,5 C 19,8 C
27.04.2012 18:36 19,8 C 48 % 1017,3 hPa 0,0 l/m 2,5 km/h (1 Bft) N-NW 337 8,5 C 19,8 C
27.04.2012 18:41 19,8 C 48 % 1017,4 hPa 0,0 l/m 0,0 km/h (0 Bft) NW 315 8,5 C 19,8 C
27.04.2012 18:46 19,7 C 49 % 1017,4 hPa 0,0 l/m 1,8 km/h (1 Bft) W-NW 292 8,7 C 19,7 C
27.04.2012 18:51 19,6 C 50 % 1017,3 hPa 0,0 l/m 3,2 km/h (1 Bft) O-NO 67 8,9 C 19,6 C
27.04.2012 18:56 19,3 C 49 % 1017,3 hPa 0,0 l/m 2,5 km/h (1 Bft) N-NO 22 8,3 C 19,3 C
27.04.2012 19:01 19,1 C 49 % 1017,5 hPa 0,0 l/m 3,2 km/h (1 Bft) N-NO 22 8,1 C 19,1 C
27.04.2012 19:06 19,0 C 49 % 1017,5 hPa 0,0 l/m 2,9 km/h (1 Bft) NO 45 8,0 C 19,0 C
27.04.2012 19:11 18,9 C 50 % 1017,3 hPa 0,0 l/m 1,1 km/h (1 Bft) NO 45 8,2 C 18,9 C
27.04.2012 19:16 18,9 C 50 % 1017,4 hPa 0,0 l/m 4,0 km/h (1 Bft) NO 45 8,2 C 18,9 C
27.04.2012 19:21 18,8 C 50 % 1017,5 hPa 0,0 l/m 0,0 km/h (0 Bft) N-NO 22 8,2 C 18,8 C
27.04.2012 19:26 18,6 C 50 % 1017,4 hPa 0,0 l/m 0,0 km/h (0 Bft) NO 45 8,0 C 18,6 C
27.04.2012 19:31 18,5 C 50 % 1017,6 hPa 0,0 l/m 0,0 km/h (0 Bft) NO 45 7,9 C 18,5 C
27.04.2012 19:36 18,5 C 50 % 1017,5 hPa 0,0 l/m 0,0 km/h (0 Bft) NO 45 7,9 C 18,5 C
27.04.2012 19:41 18,4 C 51 % 1017,5 hPa 0,0 l/m 2,5 km/h (1 Bft) NO 45 8,1 C 18,4 C
27.04.2012 19:46 18,3 C 51 % 1017,7 hPa 0,0 l/m 2,2 km/h (1 Bft) NO 45 8,0 C 18,3 C
27.04.2012 19:51 18,2 C 52 % 1017,6 hPa 0,0 l/m 1,8 km/h (1 Bft) NO 45 8,2 C 18,2 C
27.04.2012 19:56 18,1 C 52 % 1017,6 hPa 0,0 l/m 2,2 km/h (1 Bft) NO 45 8,1 C 18,1 C
27.04.2012 20:01 18,1 C 52 % 1017,5 hPa 0,0 l/m 2,9 km/h (1 Bft) NO 45 8,1 C 18,1 C
27.04.2012 20:06 18,1 C 52 % 1017,7 hPa 0,0 l/m 2,2 km/h (1 Bft) NO 45 8,1 C 18,1 C
27.04.2012 20:11 17,9 C 53 % 1017,7 hPa 0,0 l/m 1,4 km/h (1 Bft) NO 45 8,2 C 17,9 C
27.04.2012 20:16 17,9 C 53 % 1017,8 hPa 0,0 l/m 1,1 km/h (1 Bft) O-NO 67 8,2 C 17,9 C
27.04.2012 20:21 17,9 C 53 % 1017,9 hPa 0,0 l/m 2,2 km/h (1 Bft) O-NO 67 8,2 C 17,9 C
27.04.2012 20:26 17,8 C 53 % 1017,9 hPa 0,0 l/m 1,4 km/h (1 Bft) O 90 8,1 C 17,8 C
27.04.2012 20:31 17,8 C 53 % 1017,9 hPa 0,0 l/m 3,2 km/h (1 Bft) O-NO 67 8,1 C 17,8 C
27.04.2012 20:36 17,7 C 53 % 1017,9 hPa 0,0 l/m 1,4 km/h (1 Bft) O-NO 67 8,0 C 17,7 C
27.04.2012 20:41 17,6 C 54 % 1018,0 hPa 0,0 l/m 5,4 km/h (1 Bft) O-NO 67 8,2 C 17,6 C
27.04.2012 20:46 17,4 C 55 % 1018,0 hPa 0,0 l/m 1,4 km/h (1 Bft) O-NO 67 8,3 C 17,4 C
27.04.2012 20:51 17,3 C 55 % 1018,1 hPa 0,0 l/m 2,2 km/h (1 Bft) O-SO 112 8,2 C 17,3 C
27.04.2012 20:56 17,1 C 55 % 1018,0 hPa 0,0 l/m 2,2 km/h (1 Bft) O-NO 67 8,0 C 17,1 C
27.04.2012 21:01 17,0 C 56 % 1018,0 hPa 0,0 l/m 0,0 km/h (0 Bft) O-NO 67 8,2 C 17,0 C
27.04.2012 21:06 16,9 C 56 % 1018,1 hPa 0,0 l/m 0,0 km/h (0 Bft) O-NO 67 8,1 C 16,9 C
27.04.2012 21:11 16,8 C 56 % 1018,0 hPa 0,0 l/m 2,5 km/h (1 Bft) O-NO 67 8,0 C 16,8 C
27.04.2012 21:16 16,7 C 56 % 1018,2 hPa 0,0 l/m 2,5 km/h (1 Bft) O-NO 67 7,9 C 16,7 C
27.04.2012 21:21 16,6 C 57 % 1018,0 hPa 0,0 l/m 4,3 km/h (1 Bft) N-NO 22 8,0 C 16,6 C
27.04.2012 21:26 16,5 C 56 % 1018,3 hPa 0,0 l/m 2,9 km/h (1 Bft) O-NO 67 7,7 C 16,5 C
27.04.2012 21:31 16,5 C 56 % 1018,3 hPa 0,0 l/m 1,8 km/h (1 Bft) O-NO 67 7,7 C 16,5 C
27.04.2012 21:36 16,5 C 56 % 1018,4 hPa 0,0 l/m 2,5 km/h (1 Bft) NO 45 7,7 C 16,5 C
27.04.2012 21:41 16,5 C 56 % 1018,2 hPa 0,0 l/m 4,0 km/h (1 Bft) N-NO 22 7,7 C 16,5 C
27.04.2012 21:46 16,4 C 56 % 1018,2 hPa 0,0 l/m 4,7 km/h (1 Bft) N-NO 22 7,6 C 16,4 C
27.04.2012 21:51 16,4 C 56 % 1018,5 hPa 0,0 l/m 2,2 km/h (1 Bft) O-NO 67 7,6 C 16,4 C
27.04.2012 21:56 16,4 C 56 % 1018,4 hPa 0,0 l/m 2,5 km/h (1 Bft) O 90 7,6 C 16,4 C
27.04.2012 22:01 16,4 C 57 % 1018,6 hPa 0,0 l/m 3,2 km/h (1 Bft) O 90 7,9 C 16,4 C
27.04.2012 22:06 16,4 C 57 % 1018,4 hPa 0,0 l/m 4,3 km/h (1 Bft) O-SO 112 7,9 C 16,4 C
27.04.2012 22:11 16,3 C 57 % 1018,6 hPa 0,0 l/m 1,1 km/h (1 Bft) NO 45 7,8 C 16,3 C
27.04.2012 22:16 16,3 C 57 % 1018,7 hPa 0,0 l/m 0,0 km/h (0 Bft) O-NO 67 7,8 C 16,3 C
27.04.2012 22:21 16,3 C 57 % 1018,6 hPa 0,0 l/m 2,5 km/h (1 Bft) N-NO 22 7,8 C 16,3 C
27.04.2012 22:26 16,2 C 58 % 1018,6 hPa 0,0 l/m 0,0 km/h (0 Bft) NO 45 7,9 C 16,2 C
27.04.2012 22:31 16,0 C 60 % 1018,7 hPa 0,0 l/m 0,0 km/h (0 Bft) N 360 8,2 C 16,0 C
27.04.2012 22:36 15,8 C 61 % 1018,6 hPa 0,0 l/m 2,9 km/h (1 Bft) N 360 8,3 C 15,8 C
27.04.2012 22:41 15,6 C 61 % 1018,7 hPa 0,0 l/m 0,0 km/h (0 Bft) N 360 8,1 C 15,6 C
27.04.2012 22:46 15,5 C 61 % 1018,7 hPa 0,0 l/m 0,0 km/h (0 Bft) N-NO 22 8,0 C 15,5 C
27.04.2012 22:51 15,5 C 61 % 1019,0 hPa 0,0 l/m 0,0 km/h (0 Bft) N-NO 22 8,0 C 15,5 C
27.04.2012 22:56 15,6 C 61 % 1018,9 hPa 0,0 l/m 0,0 km/h (0 Bft) N-NO 22 8,1 C 15,6 C
27.04.2012 23:01 15,5 C 61 % 1019,1 hPa 0,0 l/m 0,0 km/h (0 Bft) O-NO 67 8,0 C 15,5 C
27.04.2012 23:06 15,5 C 61 % 1019,2 hPa 0,0 l/m 0,0 km/h (0 Bft) N-NO 22 8,0 C 15,5 C
27.04.2012 23:11 15,5 C 61 % 1019,3 hPa 0,0 l/m 0,0 km/h (0 Bft) W-NW 292 8,0 C 15,5 C
27.04.2012 23:16 15,5 C 62 % 1019,3 hPa 0,0 l/m 0,0 km/h (0 Bft) W-NW 292 8,3 C 15,5 C
27.04.2012 23:21 15,4 C 63 % 1019,3 hPa 0,0 l/m 0,0 km/h (0 Bft) W-NW 292 8,4 C 15,4 C
27.04.2012 23:26 15,3 C 63 % 1019,4 hPa 0,0 l/m 2,2 km/h (1 Bft) W-NW 292 8,3 C 15,3 C
27.04.2012 23:31 15,3 C 65 % 1019,6 hPa 0,0 l/m 1,4 km/h (1 Bft) W-NW 292 8,8 C 15,3 C
27.04.2012 23:36 15,1 C 65 % 1019,8 hPa 0,0 l/m 3,6 km/h (1 Bft) W-NW 292 8,6 C 15,1 C
27.04.2012 23:41 14,9 C 65 % 1019,7 hPa 0,0 l/m 0,0 km/h (0 Bft) NW 315 8,4 C 14,9 C
27.04.2012 23:46 14,9 C 65 % 1020,0 hPa 0,0 l/m 2,9 km/h (1 Bft) NW 315 8,4 C 14,9 C
27.04.2012 23:51 14,8 C 65 % 1020,0 hPa 0,0 l/m 0,0 km/h (0 Bft) NW 315 8,3 C 14,8 C
27.04.2012 23:56 14,7 C 65 % 1019,9 hPa 0,0 l/m 0,0 km/h (0 Bft) NW 315 8,2 C 14,7 C
_ Min-Zeit 06:21 13:46 00:01 - 00:11 - - 06:01 06:21
Minimum _ 12,0 C 43 % 1012,1 hPa - 0,0 km/h (0 Bft) - - 5,7 C 12,0 C
_ Max-Zeit 16:21 03:26 23:46 00:01 12:01 - - 18:11 16:21
Maximum _ 21,6 C 67 % 1020,0 hPa 0,0 l/m 23,4 km/h
W (4 Bft)
- - 9,0 C 21,6 C
Durchschnitt _ 16,2 C 56 % 1016,3 hPa #0,0 l/m 4,6 km/h (1 Bft) S - 7,3 C 16,2 C
(c) by David Heller